Location: Bussy-Saint-Georges
(48.8410°N, 2.7017°E)
Time: 15:09:54
(UTC+00:00)

MOS 1-B Rocket - Pass Details

Date: 18 October 2021
Orbit: 890 x 1606 km, 99.0° (Epoch: 28 November)

Event Time Altitude Azimuth Distance (km) Brightness Sun altitude
Rises 17:39:32 0° 17° (NNE) 4,211 7.1 -8.3°
Reaches altitude 10° 17:42:29 10° 23° (NNE) 3,133 6.4 -8.8°
Maximum altitude 17:49:16 49° 97° (E) 1,338 4.4 -9.9°
Drops below altitude 10° 17:55:07 10° 172° (S) 2,704 6.3 -10.8°
Sets 17:57:30 0° 178° (S) 3,589 7.0 -11.2°
